Content
SEND FEEDBACK

Daily
Averages
Monthly
Summary
South Africa

BERLIN, SOUTH AFRICA


Home > Africa > South Africa
Elevation: 4432 feet     Latitude: 28 57S     Longitude: 026 19E

WEATHER
 
SELECT A DAY
Number of Records: 178,567;   Date Range: 7/1/96 - 12/20/14
 
SHARE

PRINT THIS DATA

[ ← Previous Day ]
WEATHER ALMANAC - FEBRUARY 13, 2013
[ Next Day → ]
[ °C ]   °F
Weather ElementAverageHighLow
Temperature75.3 °F90 °F (5:00 pm)62.6 °F (5:00 am)
Dewpoint56.9 °F61 °F (8:00 am)50 °F (5:00 pm)
Humidity54.6 %83 % (2:00 am)16 % (5:00 pm)
Barometer30.07 in30.18 in (8:00 am)29.95 in (6:00 pm)
Wind Speed6.4 mph10.4 mph (9:00 am)
Weather ElementAverage
Visibility10.7 mi
Wind DirectionSSE (172.3 °)

Weather ElementTotal
Precipitation---
Cooling Degree Days11.3 (Base 65)
Growing Degree Days26.3 (Base 50)
Averaged from 31 records on February 13, 2013
WEATHER CONDITIONS BREAKOUT
WIND DIRECTION BREAKOUT
WEATHER BY HOUR - FEBRUARY 13, 2013
[ °C ]   °F
Local TimeTemperatureDewpointHumidityBarometerVisibilityWind DirectionWind SpeedGust SpeedPrecipitationEventsConditions
1:00 AM66.2 °F59.0 °F78 %30.15 inNNE (20°)4.6 mph
2:00 AM66.0 °F60.0 °F74 %North4.6 mph
2:00 AM64.4 °F59.0 °F83 %30.15 inNorth (360°)4.6 mph
3:00 AM64.4 °F57.2 °F77 %30.15 inNorth (360°)3.5 mph
4:00 AM64.4 °F57.2 °F77 %30.15 inNNE (20°)8.1 mph
5:00 AM63.0 °F58.0 °F80 %19.0 miNNE (30°)3.5 mph
5:00 AM62.6 °F57.2 °F82 %30.15 inNNE (30°)3.5 mphClear
6:00 AM64.4 °F57.2 °F77 %30.09 inENE (70°)8.1 mphClear
7:00 AM64.4 °F57.2 °F77 %30.09 inENE (60°)6.9 mphClear
8:00 AM69.0 °F61.0 °F68 %19.0 miNNE (30°)9.2 mph
8:00 AM68.0 °F60.8 °F78 %30.18 inNNE (30°)9.2 mphClear
9:00 AM73.4 °F60.8 °F65 %30.12 inNE (40°)10.4 mphClear
10:00 AM77.0 °F59.0 °F54 %30.09 in6.2 miNNE (30°)10.4 mphPartly Cloudy
11:00 AM81.0 °F59.0 °F36 %19.0 miNorth10.4 mph
11:00 AM80.6 °F57.2 °F45 %30.15 inNorth (360°)10.4 mphClear
12:00 PM82.4 °F59.0 °F45 %30.06 in6.2 miNNW (340°)10.4 mphPartly Cloudy
1:00 PM84.2 °F59.0 °F42 %30.04 in6.2 miNNW (340°)10.4 mphPartly Cloudy
2:00 PM86.0 °F53.0 °F22 %19.0 miWNW (290°)5.8 mphScattered Clouds
2:00 PM84.2 °F51.8 °F33 %30.06 in6.2 miWNW (290°)5.8 mphPartly Cloudy
3:00 PM87.8 °F53.6 °F31 %30.01 in6.2 miVariable4.6 mphScattered Clouds
4:00 PM87.8 °F55.4 °F33 %29.98 in6.2 miNW (310°)6.9 mphScattered Clouds
5:00 PM90.0 °F50.0 °F16 %19.0 miSW (230°)3.5 mphScattered Clouds
5:00 PM89.6 °F50.0 °F26 %30.01 in6.2 miSW (230°)3.5 mphPartly Cloudy
6:00 PM87.8 °F53.6 °F31 %29.95 in6.2 miNorth (350°)3.5 mphPartly Cloudy
7:00 PM86.0 °F53.6 °F33 %29.95 in6.2 miEast (80°)4.6 mphPartly Cloudy
8:00 PM78.0 °F57.0 °F39 %19.0 miNE (40°)6.9 mphScattered Clouds
8:00 PM77.0 °F57.2 °F50 %30.04 in6.2 miNE (40°)5.8 mphPartly Cloudy
9:00 PM73.4 °F59.0 °F61 %30.01 in6.2 miNorth (360°)6.9 mph
10:00 PM71.6 °F57.2 °F60 %30.06 inNorth (360°)5.8 mph
11:00 PM71.0 °F58.0 °F55 %NW (320°)4.6 mph
11:00 PM69.8 °F57.2 °F64 %30.06 inNW (320°)3.5 mph
Hourly data recorded from FABL, located miles away from Berlin, South Africa







STORIES FROM OUR PARTNERS